Windsor, Ontario

10:20 AM EDT on August 25, 2016 (GMT -0400)
Windsor

Weather History for CYQG - April, 2014

Change the Weather History Date:

Tuesday, April 29, 2014

  Actual Average Record
Temperature  
Mean Temperature 59 °F -  
Max Temperature 73 °F 68 °F 78 °F (2004)
Min Temperature 45 °F 47 °F 30 °F (2012)
Degree Days  
Heating Degree Days 6    
Growing Degree Days 9 (Base 50)    
Moisture  
Dew Point 52 °F    
Average Humidity 83    
Maximum Humidity 100    
Minimum Humidity 55    
Precipitation  
Precipitation 0.39 in 0.10 in - ()
Sea Level Pressure  
Sea Level Pressure 29.69 in    
Wind  
Wind Speed 14 mph ()    
Max Wind Speed 24 mph    
Max Gust Speed 32 mph    
Visibility 9.7 miles    
Events Rain , Thunderstorm    
Averages and records for this station are not official NWS values.
T = Trace of Precipitation, MM = Missing Value Source: Averaged Metar Reports

Daily Weather History Graph

Daily Weather History Graph

Search for Another Location

Airport or City:

Trip Planner

Search our weather history database for the weather conditions in past years. The results will help you decide how hot, cold, wet, or windy it might be!

Date:

Astronomy

Apr. 29, 2014 Rise Set
Actual Time 6:30 AM EDT 8:29 PM EDT
Civil Twilight 5:59 AM EDT 8:59 PM EDT
Nautical Twilight 5:22 AM EDT 9:36 PM EDT
Astronomical Twilight 4:42 AM EDT 10:17 PM EDT
Moon 6:47 AM EDT (4/29) 9:08 PM EDT (4/29)
Length of Visible Light 14h 59m
Length of Day
13h 59m
New Moon, 0% of the Moon is Illuminated
Apr 29
New Moon
May 6
First Quarter
May 14
Full
May 21
Last Quarter
May 28
New

Hourly Weather History & Observations

Time (EDT) Temp. Windchill Dew Point Humidity Pressure Visibility Wind Dir Wind Speed Gust Speed Precip Events Conditions
12:00 AM 50.0 °F - 35.6 °F 58% 29.82 in 15.0 mi East 18.4 mph 24.2 mph N/A   Overcast
1:00 AM 48.2 °F - 37.4 °F 66% 29.80 in 15.0 mi East 16.1 mph 21.9 mph N/A   Overcast
2:00 AM 48 °F - 39 °F 62% 29.78 in 15 mi East 15.0 mph - -   Overcast
2:00 AM 48.2 °F - 39.2 °F 71% 29.78 in 15.0 mi East 16.1 mph - N/A   Overcast
2:21 AM - - - N/A% - 12.0 mi East 15.0 mph - N/A Rain Light Rain Showers
3:00 AM 48.2 °F - 42.8 °F 82% 29.73 in 12.0 mi East 13.8 mph - N/A Rain Light Rain Showers
3:44 AM - - - N/A% - 5.0 mi ESE 13.8 mph - N/A Rain Light Rain Showers
4:00 AM 46.4 °F 39.8 °F 46.4 °F 100% 29.70 in 5.0 mi East 16.1 mph - N/A Rain Light Rain Showers
5:00 AM 46.4 °F 39.5 °F 46.4 °F 100% 29.68 in 5.0 mi ESE 17.3 mph - N/A Rain Light Rain Showers
5:20 AM - - - N/A% - 5.0 mi East 18.4 mph - N/A Rain Light Rain Showers
5:36 AM - - - N/A% - 5.0 mi East 12.7 mph - N/A Rain Light Rain
6:00 AM 48.2 °F - 48.2 °F 100% 29.65 in 3.0 mi ESE 13.8 mph 19.6 mph N/A Rain Rain
6:15 AM - - - N/A% - 4.0 mi East 11.5 mph 18.4 mph N/A Rain Light Rain
6:35 AM - - - N/A% - 3.0 mi East 17.3 mph 24.2 mph N/A Rain Light Rain
7:00 AM 48.2 °F - 48.2 °F 100% 29.61 in 3.0 mi ESE 15.0 mph 20.7 mph N/A Rain Light Rain
8:00 AM 50 °F - 50 °F 100% 29.60 in 3 mi ESE 15.0 mph - - Rain Light Rain
8:00 AM 50.0 °F - 50.0 °F 100% 29.60 in 3.0 mi ESE 15.0 mph 20.7 mph N/A Rain Light Rain
8:27 AM - - - N/A% - 3.0 mi SE 17.3 mph - N/A Rain Light Rain
8:39 AM - - - N/A% - 4.0 mi SE 19.6 mph - N/A Rain Light Rain
9:00 AM 51.8 °F - 51.8 °F 100% 29.60 in 4.0 mi SE 19.6 mph 27.6 mph N/A Rain Light Rain
9:10 AM - - - N/A% - 3.0 mi ESE 20.7 mph - N/A Rain Rain Showers
10:00 AM 53.6 °F - 53.6 °F 100% 29.59 in 2.0 mi SE 16.1 mph 27.6 mph N/A Rain Rain Showers
10:12 AM - - - N/A% - 3.0 mi SE 24.2 mph 32.2 mph N/A Rain Light Rain Showers
10:42 AM - - - N/A% - 8.0 mi SSE 20.7 mph 28.8 mph N/A   Overcast
11:00 AM 53.6 °F - 53.6 °F 100% 29.61 in 10.0 mi SSE 16.1 mph - N/A   Overcast
12:00 PM 57.2 °F - 57.2 °F 100% 29.62 in 15.0 mi SSE 15.0 mph - N/A   Overcast
12:31 PM - - - N/A% - 15.0 mi South 16.1 mph - N/A   Mostly Cloudy
1:00 PM 62.6 °F - 60.8 °F 94% 29.64 in 15.0 mi South 16.1 mph - N/A   Mostly Cloudy
2:00 PM 65 °F - 62 °F 86% 29.63 in 15 mi SSE 16.1 mph - -   Partly Cloudy
2:00 PM 66.2 °F - 62.6 °F 88% 29.63 in 15.0 mi South 13.8 mph 19.6 mph N/A   Mostly Cloudy
2:27 PM - - - N/A% - 15.0 mi South 11.5 mph 18.4 mph N/A Rain Light Rain Showers
3:00 PM 68.0 °F - 62.6 °F 83% 29.66 in 15.0 mi South 9.2 mph - N/A Rain Light Rain Showers
3:38 PM - - - N/A% - 15.0 mi South 15.0 mph 21.9 mph N/A   Scattered Clouds
4:00 PM 71.6 °F - 62.6 °F 73% 29.66 in 15.0 mi SSE 12.7 mph - N/A   Partly Cloudy
5:00 PM 71.6 °F - 60.8 °F 69% 29.68 in 15.0 mi SSE 15.0 mph - N/A   Partly Cloudy
6:00 PM 73.4 °F - 59.0 °F 61% 29.69 in 15.0 mi SSE 15.0 mph - N/A   Mostly Cloudy
7:00 PM 68.0 °F - 55.4 °F 64% 29.71 in 15.0 mi SE 11.5 mph - N/A   Mostly Cloudy
8:00 PM 67 °F - 54 °F 55% 29.72 in 15 mi ESE 5.8 mph - -   Partly Cloudy
8:00 PM 68.0 °F - 55.4 °F 64% 29.72 in 15.0 mi ESE 5.8 mph - N/A   Mostly Cloudy
8:42 PM - - - N/A% - 15.0 mi SE 8.1 mph - N/A Rain Light Rain Showers
9:00 PM 62.6 °F - 55.4 °F 77% 29.73 in 15.0 mi ESE 9.2 mph - N/A Rain Light Rain Showers
9:38 PM - - - N/A% - 7.0 mi WSW 17.3 mph 29.9 mph N/A Rain , Thunderstorm Light Thunderstorms and Rain
10:00 PM 57.2 °F - 55.4 °F 94% 29.82 in 5.0 mi West 17.3 mph - N/A Rain , Thunderstorm Light Thunderstorms and Rain
10:25 PM - - - N/A% - 6.0 mi West 11.5 mph - N/A Rain , Thunderstorm Thunderstorms and Rain
10:33 PM - - - N/A% - 8.0 mi WSW 10.4 mph - N/A Rain Light Rain Showers
11:00 PM 57.2 °F - 53.6 °F 88% 29.83 in 15.0 mi Calm Calm - N/A Rain Light Rain Showers